TimeEST,TemperatureF,Dew PointF,Humidity,Sea Level PressureIn,VisibilityMPH,Wind Direction,Wind SpeedMPH,Gust SpeedMPH,PrecipitationIn,Events,Conditions,WindDirDegrees,DateUTC
12:53 AM,69.1,64.9,87,30.11,10.0,SE,5.8,-,N/A,,Clear,140,2013-01-30 05:53:00
1:53 AM,68.0,64.9,90,30.10,10.0,SE,6.9,-,N/A,,Clear,140,2013-01-30 06:53:00
2:53 AM,66.9,64.0,90,30.09,10.0,SE,5.8,-,N/A,,Clear,130,2013-01-30 07:53:00
3:53 AM,66.9,64.0,90,30.08,10.0,SE,4.6,-,N/A,,Clear,140,2013-01-30 08:53:00
4:53 AM,66.9,63.0,87,30.06,10.0,SE,4.6,-,N/A,,Clear,130,2013-01-30 09:53:00
5:53 AM,66.0,63.0,90,30.06,10.0,SE,4.6,-,N/A,,Clear,140,2013-01-30 10:53:00
6:53 AM,66.0,63.0,90,30.07,10.0,SE,4.6,-,N/A,,Clear,140,2013-01-30 11:53:00
8:53 AM,70.0,64.0,81,30.06,10.0,SSE,8.1,-,N/A,,Clear,150,2013-01-30 13:53:00
9:53 AM,75.0,64.0,69,30.06,10.0,SSE,15.0,20.7,N/A,,Clear,160,2013-01-30 14:53:00
10:53 AM,78.1,64.0,62,30.03,10.0,SSE,16.1,23.0,N/A,,Scattered Clouds,160,2013-01-30 15:53:00
11:11 AM,78.8,64.4,61,30.01,10.0,SSE,17.3,24.2,N/A,,Mostly Cloudy,150,2013-01-30 16:11:00
11:53 AM,81.0,64.0,56,30.00,10.0,South,12.7,21.9,N/A,,Scattered Clouds,170,2013-01-30 16:53:00
12:53 PM,82.0,63.0,52,29.98,10.0,South,10.4,19.6,N/A,,Mostly Cloudy,170,2013-01-30 17:53:00
1:53 PM,82.0,63.0,52,30.00,10.0,SW,17.3,20.7,N/A,,Partly Cloudy,220,2013-01-30 18:53:00
2:53 PM,81.0,63.0,54,29.99,10.0,South,16.1,23.0,N/A,,Clear,190,2013-01-30 19:53:00
3:53 PM,79.0,63.0,58,29.99,10.0,South,13.8,23.0,N/A,,Clear,190,2013-01-30 20:53:00
4:53 PM,78.1,63.0,60,29.98,10.0,SSW,16.1,23.0,N/A,,Clear,200,2013-01-30 21:53:00
5:53 PM,75.9,64.0,67,29.98,10.0,SSW,10.4,-,N/A,,Clear,200,2013-01-30 22:53:00
6:53 PM,73.9,64.9,73,29.97,10.0,South,5.8,-,N/A,,Clear,190,2013-01-30 23:53:00
7:53 PM,72.0,64.9,78,29.98,10.0,South,4.6,-,N/A,,Clear,190,2013-01-31 00:53:00
8:53 PM,72.0,64.9,78,30.00,10.0,South,3.5,-,N/A,,Clear,190,2013-01-31 01:53:00
9:53 PM,71.1,66.0,84,29.98,10.0,South,8.1,-,N/A,,Clear,180,2013-01-31 02:53:00
10:53 PM,71.1,66.9,87,29.99,10.0,South,5.8,-,N/A,,Clear,180,2013-01-31 03:53:00
11:53 PM,70.0,66.9,90,29.99,10.0,South,4.6,-,N/A,,Clear,180,2013-01-31 04:53:00